sat.trackr.live / text

‹ back to catalog

STARLINK-35515

NORAD 66488 · 2025-263D

PAYLOAD ACTIVE UNKNOWN

§ Identity

Operator
Country
US
Launch date
2025-11-15
Launch site
AFETR
Launch vehicle
Mass (kg)
RCS (m²)

Purposes: comms

External: N2YO · Heavens-Above · Gunter

§ Orbital elements

Epoch: 2026-05-24T18:01:52.174848Z

Period
94.27 min
Inclination
43.0004°
Eccentricity
0.0001311
Mean motion
15.27582820 rev/d
Perigee alt
482.1 km
Apogee alt
483.9 km
Semi-major
6,861.2 km
B*
2.4915e-4
RAAN
280.9594°
Arg perigee
268.2421°
Mean anomaly
91.8280°
Rev number
3,053

§ Raw data

STARLINK-355151 66488U 25263D   26144.75129832  .00006601  00000+0  24915-3 0  99902 66488  43.0004 280.9594 0001311 268.2421  91.8280 15.27582820 30532

JSON: /api/v1/satellites/66488 · /tle

For live sub-satellite position, see the globe view (requires WebGL).

§ Visibility from observer

Set your observer location to see the next 7 days of passes ≥ 10°. The values pass through the URL so the page stays shareable.

No JS? Fill the form by hand. The geolocation button needs JavaScript.